Weather History for Moffett NAS, CA

Change the Weather History Date:

Saturday, December 7, 2013

  Actual Average Record
Temperature  
Mean Temperature 43 °F 52 °F  
Max Temperature 51 °F 60 °F 71 °F (1988)
Min Temperature 34 °F 43 °F 34 °F (2009)
Degree Days  
Heating Degree Days 22    
Month to date heating degree days 126  
Since 1 July heating degree days 498  
Cooling Degree Days 0    
Month to date cooling degree days 0  
Year to date cooling degree days 478  
Moisture  
Dew Point 30 °F    
Average Humidity 63    
Maximum Humidity 86    
Minimum Humidity 39    
Precipitation  
Precipitation 0.08 in 0.07 in 1.04 in (1950)
Month to date precipitation 0.16 0.47  
Year to date precipitation 3.08 12.59  
Since 1 July precipitation 1.26 2.96  
Sea Level Pressure  
Sea Level Pressure 30.13 in    
Wind  
Wind Speed 7 mph (WNW)    
Max Wind Speed 18 mph    
Max Gust Speed 25 mph    
Visibility 10 miles    
Events      
T = Trace of Precipitation, MM = Missing Value Source: NWS Daily Summary

Daily Weather History Graph

Daily Weather History Graph

Search for Another Location

Airport:

Trip Planner

Search our weather history database for the weather conditions in past years. The results will help you decide how hot, cold, wet, or windy it might be!

Date:

Astronomy

Dec. 07, 2013 Rise Set
Actual Time 7:09 AM PST 4:50 PM PST
Civil Twilight 6:40 AM PST 5:19 PM PST
Nautical Twilight 6:07 AM PST 5:51 PM PST
Astronomical Twilight 5:36 AM PST 6:23 PM PST
Moon 11:02 AM PST (12/7) 10:32 PM PST (12/7)
Length of Visible Light 10h 38m
Length of Day
9h 40m
Waxing Crescent, 30% of the Moon is Illuminated
Dec 7
Waxing Crescent
Dec 9
First Quarter
Dec 17
Full
Dec 25
Last Quarter
Jan 1
New

Hourly Weather History & Observations

Time (PST) Temp. Windchill Dew Point Humidity Pressure Visibility Wind Dir Wind Speed Gust Speed Precip Events Conditions
12:56 AM 50.0 °F - 46.0 °F 86% 29.95 in 10.0 mi WNW 6.9 mph - 0.08 in   Overcast
1:56 AM 48.0 °F - 44.1 °F 86% 29.97 in 10.0 mi WNW 6.9 mph - 0.01 in   Overcast
2:56 AM 46.9 °F - 39.9 °F 77% 29.99 in 10.0 mi West 6.9 mph - N/A   Overcast
3:56 AM 46.0 °F 42.5 °F 37.0 °F 71% 30.00 in 10.0 mi WNW 6.9 mph - N/A   Clear
4:56 AM 44.1 °F 40.8 °F 36.0 °F 73% 30.02 in 10.0 mi West 5.8 mph - N/A   Clear
5:56 AM 44.1 °F 40.1 °F 34.0 °F 68% 30.04 in 10.0 mi West 6.9 mph - N/A   Clear
6:56 AM 43.0 °F 39.5 °F 32.0 °F 65% 30.06 in 10.0 mi West 5.8 mph - N/A   Partly Cloudy
7:56 AM 44.1 °F 40.8 °F 32.0 °F 63% 30.09 in 10.0 mi West 5.8 mph - N/A   Clear
8:56 AM 45.0 °F 41.8 °F 32.0 °F 60% 30.13 in 10.0 mi WNW 5.8 mph - N/A   Overcast
9:56 AM 46.9 °F - 28.9 °F 50% 30.15 in 10.0 mi NW 11.5 mph 24.2 mph N/A   Partly Cloudy
10:56 AM 48.0 °F - 28.0 °F 46% 30.14 in 10.0 mi NW 12.7 mph 24.2 mph N/A   Clear
11:56 AM 48.9 °F - 25.0 °F 39% 30.13 in 10.0 mi NW 16.1 mph 24.2 mph N/A   Clear
12:56 PM 48.9 °F - 27.0 °F 43% 30.12 in 10.0 mi NNW 12.7 mph - N/A   Clear
1:56 PM 48.9 °F - 27.0 °F 43% 30.12 in 10.0 mi North 12.7 mph - N/A   Clear
2:56 PM 48.9 °F - 24.1 °F 38% 30.14 in 10.0 mi NW 9.2 mph - N/A   Clear
3:56 PM 48.0 °F - 25.0 °F 41% 30.18 in 10.0 mi WNW 11.5 mph 19.6 mph N/A   Clear
4:56 PM 45.0 °F 40.1 °F 26.1 °F 48% 30.19 in 10.0 mi West 9.2 mph 19.6 mph N/A   Clear
5:56 PM 44.1 °F 39.5 °F 27.0 °F 51% 30.19 in 10.0 mi WNW 8.1 mph - N/A   Clear
6:56 PM 43.0 °F 38.2 °F 25.0 °F 49% 30.22 in 10.0 mi WNW 8.1 mph - N/A   Clear
7:56 PM 42.1 °F 40.2 °F 26.1 °F 53% 30.22 in 10.0 mi West 3.5 mph - N/A   Clear
8:56 PM 39.9 °F 37.8 °F 27.0 °F 60% 30.22 in 10.0 mi SW 3.5 mph - N/A   Clear
9:56 PM 37.9 °F - 27.0 °F 65% 30.24 in 10.0 mi Calm Calm - N/A   Clear
10:56 PM 37.0 °F - 27.0 °F 67% 30.25 in 10.0 mi Calm Calm - N/A   Clear
11:56 PM 34.0 °F - 26.1 °F 73% 30.27 in 10.0 mi Calm Calm - N/A   Clear